TimeCDT,TemperatureF,Dew PointF,Humidity,Sea Level PressureIn,VisibilityMPH,Wind Direction,Wind SpeedMPH,Gust SpeedMPH,PrecipitationIn,Events,Conditions,WindDirDegrees,DateUTC
12:56 AM,61.0,46.0,58,29.87,10.0,South,16.1,-,N/A,,Clear,170,2013-10-09 05:56:00
1:56 AM,60.1,46.9,62,29.88,10.0,SSE,13.8,-,N/A,,Clear,160,2013-10-09 06:56:00
2:56 AM,57.9,46.9,67,29.88,10.0,SSE,11.5,-,N/A,,Clear,160,2013-10-09 07:56:00
3:56 AM,57.0,46.9,69,29.87,10.0,SSE,11.5,-,N/A,,Clear,150,2013-10-09 08:56:00
4:56 AM,57.0,46.9,69,29.88,10.0,SSE,15.0,-,N/A,,Clear,150,2013-10-09 09:56:00
5:56 AM,55.9,46.0,69,29.88,10.0,SSE,15.0,20.7,N/A,,Clear,150,2013-10-09 10:56:00
6:56 AM,55.0,46.0,72,29.89,10.0,SSE,12.7,-,N/A,,Clear,150,2013-10-09 11:56:00
7:56 AM,55.0,46.0,72,29.91,10.0,SSE,11.5,-,N/A,,Clear,150,2013-10-09 12:56:00
8:56 AM,57.9,46.9,67,29.92,10.0,SSE,9.2,-,N/A,,Clear,160,2013-10-09 13:56:00
9:56 AM,62.1,46.9,58,29.93,10.0,South,15.0,20.7,N/A,,Clear,170,2013-10-09 14:56:00
10:56 AM,64.9,48.0,54,29.94,10.0,South,15.0,-,N/A,,Clear,180,2013-10-09 15:56:00
11:56 AM,68.0,48.0,49,29.93,10.0,SSE,13.8,20.7,N/A,,Clear,160,2013-10-09 16:56:00
12:56 PM,72.0,48.9,44,29.92,10.0,SSE,10.4,24.2,N/A,,Clear,150,2013-10-09 17:56:00
1:56 PM,75.0,48.0,38,29.89,10.0,SE,16.1,24.2,N/A,,Clear,140,2013-10-09 18:56:00
2:56 PM,78.1,48.0,35,29.87,10.0,SSE,17.3,-,N/A,,Clear,150,2013-10-09 19:56:00
3:56 PM,79.0,48.0,34,29.86,10.0,SE,19.6,29.9,N/A,,Clear,140,2013-10-09 20:56:00
4:56 PM,79.0,46.9,32,29.84,10.0,SE,19.6,32.2,N/A,,Clear,140,2013-10-09 21:56:00
5:56 PM,77.0,46.9,34,29.85,10.0,SSE,20.7,26.5,N/A,,Clear,160,2013-10-09 22:56:00
6:56 PM,73.0,48.0,41,29.87,10.0,SSE,11.5,-,N/A,,Clear,150,2013-10-09 23:56:00
7:56 PM,69.1,48.9,49,29.89,10.0,SE,10.4,-,N/A,,Clear,130,2013-10-10 00:56:00
8:56 PM,64.9,50.0,58,29.91,10.0,SE,8.1,-,N/A,,Clear,130,2013-10-10 01:56:00
9:56 PM,64.9,51.1,61,29.91,10.0,SE,12.7,-,N/A,,Clear,140,2013-10-10 02:56:00
10:56 PM,63.0,51.1,65,29.92,10.0,SE,8.1,-,N/A,,Clear,140,2013-10-10 03:56:00
11:56 PM,63.0,51.1,65,29.92,10.0,SSE,11.5,-,N/A,,Clear,160,2013-10-10 04:56:00